www.pogodaiklimat.ru

Погода и климат >> Архив погоды >> Австралия >> Северная территория >> Раббит Флат


ПОГОДА в Раббит Флат

  • Прогноз погоды в Раббит Флат
  • Монитор погоды в Раббит Флат

АРХИВ ПОГОДЫ в Раббит Флат

Время (UTC), дата Ветер
(напр.,м/с)
 
Видим.   Явления Облачность Т
(С)
Тd
(С)
f
(%)
Тe
(С)
Тes
(С)
Комфортность P
(гПа)
Po
(гПа)
Тmin
(С)
Tmax
(С)
R
(мм)
R24
(мм)
S
(см)
20 13.08 В 3 н/о н/о +3.7 -9.6 37 +1 +1 1021.5 982.1
21 13.08 В 2 н/о н/о +3.2 -10.4 36 +1 +1 1021.8 982.5
23 13.08 В 5 н/о н/о +16.0 -3.5 26 +15 +15 1022.9 983.5
00 14.08 В 6 н/о н/о +18.6 -3.5 22 +18 +18 1022.9 983.6
02 14.08 СВ 6 н/о н/о +22.2 -5.6 15 +21 +21 комфорт 1022.1 982.7 +2.7
03 14.08 СВ 5 н/о н/о +22.8 -6.1 14 +21 +21 комфорт 1021.4 982.1
05 14.08 СВ 4 н/о н/о +24.5 -6.7 12 +22 +22 комфорт 1018.8 979.5
06 14.08 С 3 н/о н/о +24.5 -6.7 12 +22 +22 комфорт 1018.2 979.0
08 14.08 В 4 н/о н/о +23.7 -7.4 12 +22 +22 комфорт 1017.7 978.5
09 14.08 В 3 н/о н/о +22.4 -7.3 13 +21 +21 комфорт 1017.9 978.7
11 14.08 СВ 3 н/о н/о +17.4 -7.9 17 +18 +18 1019.8 980.5
12 14.08 СВ 3 н/о н/о +16.7 -7.7 18 +17 +17 1019.9 980.7
14 14.08 СВ 2 н/о н/о +8.6 -10.3 25 +8 +8 1019.9 980.6 +25.3
15 14.08 штиль 0 н/о н/о +8.0 -10.3 26 +8 +8 1019.7 980.5
17 14.08 штиль 0 н/о н/о +6.1 -11.0 28 +6 +6 1019.4 980.1
18 14.08 штиль 0 н/о н/о +5.8 -11.3 28 +6 +6 1019.3 980.1
20 14.08 штиль 0 н/о н/о +3.5 -12.4 30 +4 +4 1019.5 980.2
21 14.08 С 2 н/о н/о +3.4 -11.3 33 +2 +2 1019.7 980.5
23 14.08 штиль 0 н/о н/о +14.7 -8.0 20 +15 +15 1021.6 982.2
00 15.08 СВ 2 н/о н/о +18.3 -7.9 16 +19 +19 1021.7 982.4
02 15.08 С 3 н/о н/о +25.5 -9.7 9 +23 +23 комфорт 1020.5 981.2 +2.5
03 15.08 С 3 н/о н/о +26.4 -10.5 8 +23 +23 комфорт 1020.0 980.8
05 15.08 С 3 н/о н/о +27.0 -13.6 6 +23 +23 комфорт 1017.1 977.9
06 15.08 З 3 н/о н/о +27.2 -13.4 6 +23 +23 комфорт 1016.2 977.2
08 15.08 В 1 н/о н/о +26.4 -14.0 6 +23 +23 комфорт 1016.1 976.9
09 15.08 В 1 н/о н/о +24.8 -13.3 7 +22 +22 комфорт 1016.1 977.1
11 15.08 В 3 н/о н/о +15.1 -14.1 12 +15 +15 1017.7 978.5
12 15.08 В 3 н/о н/о +14.2 -15.8 11 +14 +14 1017.7 978.6
14 15.08 В 2 н/о н/о +9.6 -15.7 15 +9 +9 1017.8 978.6 +28.6
15 15.08 ЮВ 2 н/о н/о +8.6 -15.0 17 +8 +8 1018.0 978.8
17 15.08 З 1 н/о н/о +7.2 -16.2 17 +7 +7 1017.5 978.3
18 15.08 ЮЗ 2 н/о н/о +6.0 -16.5 18 +5 +5 1017.0 978.0
20 15.08 штиль 0 н/о н/о +4.8 -16.2 20 +5 +5 1017.0 977.8
21 15.08 штиль 0 н/о н/о +4.4 -16.6 20 +5 +5 1016.9 977.9
23 15.08 штиль 0 н/о н/о +16.8 -11.7 13 +17 +17 1018.3 979.0
00 16.08 С 2 н/о н/о +19.7 -11.5 11 +20 +20 1018.4 979.2
02 16.08 С 5 н/о н/о +28.9 -10.3 7 +25 +25 комфорт 1017.5 978.3 +4.1
03 16.08 С 4 н/о н/о +29.6 -11.7 6 +25 +25 комфорт 1017.0 978.0
05 16.08 З 3 н/о н/о +30.6 -13.3 5 +26 +26 жарко 1014.8 975.7
06 16.08 ЮЗ 3 н/о н/о +30.1 -13.6 5 +26 +26 жарко 1014.2 975.3
08 16.08 З 2 н/о н/о +30.3 -13.5 5 +26 +26 жарко 1014.2 975.1
09 16.08 СЗ 3 н/о н/о +27.6 -15.4 5 +24 +24 комфорт 1014.2 975.3
11 16.08 ЮВ 1 н/о н/о +16.3 -14.2 11 +17 +17 1015.6 976.4
12 16.08 В 3 н/о н/о +16.8 -13.8 11 +17 +17 1015.7 976.7
14 16.08 Ю 2 н/о н/о +12.1 -15.4 13 +12 +12 1016.0 976.8 +31.7
15 16.08 В 2 н/о н/о +11.8 -14.8 14 +11 +11 1015.8 976.8
17 16.08 З 1 н/о н/о +9.7 -14.1 17 +11 +11 1014.9 975.8
18 16.08 З 1 н/о н/о +8.2 -15.4 17 +8 +8 1014.7 975.7
20 16.08 штиль 0 н/о н/о +6.6 -16.0 18 +7 +7 1015.1 976.0
21 16.08 СЗ 2 н/о н/о +7.0 -14.4 20 +6 +6 1015.3 976.3
23 16.08 Ю 3 н/о н/о +20.2 -12.3 10 +20 +20 1016.7 977.5
00 17.08 Ю 3 н/о н/о +22.0 -12.3 9 +20 +20 1016.5 977.5
02 17.08 Ю 4 н/о н/о +28.4 -12.6 6 +24 +24 комфорт 1016.3 977.1 +6.5
03 17.08 ЮЗ 3 н/о н/о +29.3 -11.9 6 +25 +25 комфорт 1015.8 976.8
05 17.08 З 5 н/о н/о +31.2 -10.6 6 +27 +27 жарко 1013.9 974.8
06 17.08 З 3 н/о н/о +31.4 -10.4 6 +27 +27 жарко 1013.5 974.6
08 17.08 З 5 н/о н/о +29.9 -7.9 8 +26 +26 жарко 1014.2 975.1
09 17.08 З 4 н/о н/о +28.1 -7.7 9 +25 +25 комфорт 1014.2 975.3
11 17.08 ЮЗ 4 н/о н/о +23.2 -4.0 16 +21 +21 комфорт 1016.2 977.0
12 17.08 ЮЗ 4 н/о н/о +23.1 -1.8 19 +22 +22 комфорт 1016.2 977.2
14 17.08 Ю 5 н/о н/о +21.1 +1.4 27 +21 +21 комфорт 1016.8 977.6 +32.6
15 17.08 ЮЗ 5 н/о н/о +20.5 +1.9 29 +21 +21 комфорт 1016.7 977.7
17 17.08 Ю 5 н/о н/о +18.1 +0.7 31 +18 +18 1016.8 977.6
18 17.08 Ю 4 н/о н/о +17.4 +0.1 31 +17 +17 1016.7 977.7
20 17.08 Ю 3 н/о н/о +14.7 -3.1 29 +14 +14 1017.4 978.2
21 17.08 Ю 3 н/о н/о +14.0 -3.3 30 +13 +13 1017.6 978.5
23 17.08 Ю 5 н/о н/о +19.3 -4.9 19 +19 +19 1019.3 980.0
00 18.08 Ю 8 н/о н/о +21.6 -5.3 16 +20 +20 1019.3 980.1
02 18.08 Ю 7 н/о н/о +26.0 -3.5 14 +24 +24 комфорт 1018.7 979.4 +13.3
03 18.08 Ю 7 н/о н/о +26.8 -3.9 13 +24 +24 комфорт 1018.2 979.0
05 18.08 Ю 6 н/о н/о +29.1 -5.6 10 +26 +26 жарко 1016.3 977.1
06 18.08 Ю 6 н/о н/о +29.2 -6.9 9 +26 +26 жарко 1015.9 976.9
08 18.08 Ю 6 н/о н/о +27.7 -9.5 8 +24 +24 комфорт 1016.3 977.1
09 18.08 Ю 5 н/о н/о +26.5 -12.1 7 +23 +23 комфорт 1016.4 977.4
11 18.08 Ю 5 н/о н/о +21.3 -8.2 13 +20 +20 1018.6 979.3
12 18.08 Ю 5 н/о н/о +20.3 -9.0 13 +20 +20 1018.8 979.6
14 18.08 Ю 5 н/о н/о +17.8 -7.5 17 +17 +17 1019.5 980.2 +29.7
15 18.08 Ю 5 н/о н/о +17.3 -7.2 18 +17 +17 1019.6 980.4
17 18.08 Ю 4 н/о н/о +14.9 -7.2 21 +14 +14 1020.0 980.7
18 18.08 Ю 4 н/о н/о +14.2 -7.2 22 +13 +13 1019.8 980.6
20 18.08 Ю 4 н/о н/о +12.8 -5.2 28 +11 +11 1021.0 981.6
21 18.08 Ю 4 н/о н/о +12.7 -5.3 28 +11 +11 1021.2 981.9
23 18.08 В 8 н/о н/о +17.8 -9.1 15 +17 +17 1023.4 983.9
00 19.08 В 9 н/о н/о +18.4 -10.5 13 +17 +17 1023.7 984.4
02 19.08 В 7 н/о н/о +22.4 -9.5 11 +20 +20 1023.4 983.9 +11.9
03 19.08 В 7 н/о н/о +22.8 -10.4 10 +20 +20 1022.7 983.4
05 19.08 ЮВ 7 н/о н/о +25.0 -10.0 9 +22 +22 комфорт 1020.5 981.2
06 19.08 ЮВ 6 н/о н/о +25.5 -9.7 9 +23 +23 комфорт 1020.1 980.9
08 19.08 В 5 н/о н/о +24.7 -8.9 10 +22 +22 комфорт 1020.2 980.9
09 19.08 ЮВ 5 н/о н/о +23.7 -8.5 11 +21 +21 комфорт 1020.4 981.2
11 19.08 ЮВ 3 н/о н/о +18.1 -8.9 15 +18 +18 1022.9 983.5
12 19.08 ЮВ 4 н/о н/о +17.5 -8.6 16 +17 +17 1023.1 983.8
14 19.08 ЮВ 6 н/о н/о +17.4 -6.4 19 +17 +17 1024.4 984.9 +26.5
15 19.08 ЮВ 6 н/о н/о +16.7 -6.3 20 +16 +16 1024.4 985.0
17 19.08 В 6 н/о н/о +14.3 -4.9 26 +13 +13 1025.0 985.5
18 19.08 В 6 н/о н/о +14.0 -5.2 26 +12 +12 1025.0 985.6
20 19.08 В 5 н/о н/о +11.3 -5.6 30 +9 +9 1025.9 986.3
21 19.08 В 4 н/о н/о +10.5 -5.9 31 +9 +9 1026.1 986.7
23 19.08 В 9 н/о н/о +13.3 -5.3 27 +11 +11 1028.0 988.4
00 20.08 В 9 н/о н/о +13.9 -5.8 25 +12 +12 1027.9 988.4
02 20.08 В 8 н/о н/о +17.9 -8.2 16 +17 +17 1026.4 986.8 +9.8
03 20.08 В 8 н/о н/о +18.9 -9.1 14 +18 +18 1025.5 986.1
05 20.08 В 7 н/о н/о +23.0 -11.5 9 +20 +20 1022.5 983.1
06 20.08 В 7 н/о н/о +23.0 -11.5 9 +20 +20 1022.0 982.7
08 20.08 В 6 н/о н/о +22.7 -11.8 9 +20 +20 1021.7 982.3
09 20.08 В 5 н/о н/о +21.7 -11.2 10 +20 +20 1021.9 982.6
11 20.08 ЮВ 3 н/о н/о +14.2 -12.0 15 +14 +14 1023.1 983.7
12 20.08 В 3 н/о н/о +13.5 -11.8 16 +13 +13 1023.1 983.8
14 20.08 В 4 н/о н/о +12.5 -10.5 19 +11 +11 1023.7 984.2 +24.5
15 20.08 В 4 н/о н/о +12.1 -10.1 20 +11 +11 1023.6 984.3
17 20.08 Ю 2 н/о н/о +7.1 -11.1 26 +6 +6 1023.9 984.4
18 20.08 Ю 3 н/о н/о +7.1 -10.6 27 +5 +5 1023.8 984.5
20 20.08 ЮВ 4 н/о н/о +6.6 -9.7 30 +4 +4 1024.6 985.1

 

Местоположение метеостанции Раббит Флат (Северная территория, Австралия): широта -20.18 долгота 130.02 высота над уровнем моря 339 м.

В архиве по умолчанию представлена погода в Раббит Флат за последнюю неделю. Архивные данные за месяц целиком и за предыдущие месяцы, начиная с января 2011 года, Вы можете получить, выбрав интересующий диапазон дат из раскрывающегося списка и нажав кнопку "Ввод!".


*Определитесь, кто Вы:
робот инопланетянин человек

Внимание! Время в таблицах - всемирное. Для получения местного времени необходимо прибавить поправку, которая равна 9.5 ч.

Смотрите также архив погоды в соседних городах и на ближайших метеорологических станциях:

Погода в Ладжаману (Северная территория, Австралия) (216 км)
Погода в Холс Крик (Западная Австралия, Австралия) (329 км)
Погода в Кинторе (Северная территория, Австралия) (350 км)
Погода в Аэропорту Аргайл (Западная Австралия, Австралия) (428 км)
Погода в Виктория-Ривер (Северная территория, Австралия) (433 км)
Погода в Теннант-Крике (Северная территория, Австралия) (439 км)
Погода на Виноградной ферма (Северная территория, Австралия) (451 км)
Погода в Кунунарре (Западная Австралия, Австралия) (509 км)
Погода в Фицрой-Кроссинге (Западная Австралия, Австралия) (519 км)
Погода на Базе ВВС Delamere Weapons Range (Северная территория, Австралия) (532 км)

Пояснения к столбцам:

Ветер - указаны скорость ветра в м/с - средняя за 10 мин, порывы в срок и между сроками (в фигурных скобках) и направление, откуда дует ветер: С - северный, СВ - северо-восточный, В - восточный, ЮВ - юго-восточный, Ю - южный, ЮЗ - юго-западный, З - западный, СЗ - северо-западный.
Видимость - горизонтальная дальность видимости в метрах или километрах. При видимости от 1 до 10 км при отсутствии осадков обычно наблюдается дымка, при ухудшении видимости до 1 км и менее - туман. В сухую погоду видимость может ухудшаться дымом, пылью или мглою.
Явления - указаны атмосферные явления, наблюдавшиеся в срок или в последний час перед сроком; фигурными скобками обозначены явления, наблюдавшиеся между сроками (за 1-3 часа до срока); квадратными скобками обозначены град или гололедные отложения с указанием их диаметра в мм.
Облачность - указаны через наклонную черту общая и нижняя облачность в баллах и высота нижней границы облаков в метрах; квадратными скобками обозначены формы облаков: Ci - перистые, Cs - перисто-слоистые, Cc - перисто-кучевые, Ac - высококучевые, As - высокослоистые, Sc - слоисто-кучевые, Ns - слоисто-дождевые, Cu - кучевые, Cb - кучево-дождевые. Подробнее классификацию облаков см. в Атласе облаков (PDF).
T - Температура воздуха - температура, измеренная на высоте 2 м над землей.
Td - Температура точки росы - температура, при понижении до которой содержащийся в воздухе водяной пар достигнет насыщения.
f - Относительная влажность воздуха - влажноcть воздуха, измеренная на высоте 2 м над землей.
Te - Эффективная температура - температура, которую ощущает одетый по сезону человек в тени. Характеристика душности погоды. При расчете учитывается влияние влажности воздуха и скорости ветра на теплоощущения человека.
Tes - Эффективная температура на солнце - температура, которую ощущает человек, с поправкой на солнечный нагрев. Характеристика знойности погоды. Зависит от высоты солнца над горизонтом, облачности и скорости ветра. Ночью, в пасмурную погоду, а также при ветре 12 м/с и более поправка равна нулю.
P - Атмосферное давление - приведенное к уровню моря атмосферное давление.
Po - Атмосферное давление - измеренное на уровне метеостанции атмосферное давление.
Tmin - Минимальная температура - минимум температуры воздуха на высоте 2 м над землей.
Tmax - Максимальная температура - максимум температуры воздуха на высоте 2 м над землей.
R - Количество осадков - Количество выпавших осадков за период времени, мм. При наведении курсора мыши на число - период времени, за который выпало указанное количество осадков.
R24 - Количество осадков - Количество выпавших осадков за 24 часа, мм.
S - Снежный покров - Высота снежного покрова, см. При наведении курсора мыши на число - состояние снежного покрова и степень покрытия местности в баллах.